Weather History for Calgary Springbank, AB

Change the Weather History Date:

Wednesday, March 6, 2013

  Actual Average Record
Temperature  
Mean Temperature 12 °F -  
Max Temperature 20 °F 36 °F 51 °F (2007)
Min Temperature 4 °F 15 °F -22 °F (2002)
Degree Days  
Heating Degree Days 53    
Moisture  
Dew Point 14 °F    
Average Humidity 91    
Maximum Humidity 100    
Minimum Humidity 84    
Precipitation  
Precipitation 0.04 in - - ()
Sea Level Pressure  
Sea Level Pressure 30.01 in    
Wind  
Wind Speed 2 mph ()    
Max Wind Speed 7 mph    
Max Gust Speed -    
Visibility 1.3 miles    
Events Fog , Snow    
Averages and records for this station are not official NWS values.
T = Trace of Precipitation, MM = Missing Value Source: Averaged Metar Reports

Daily Weather History Graph

Daily Weather History Graph

Search for Another Location

Airport:

Trip Planner

Search our weather history database for the weather conditions in past years. The results will help you decide how hot, cold, wet, or windy it might be!

Date:

Astronomy

Mar. 06, 2013 Rise Set
Actual Time 7:10 AM MST 6:27 PM MST
Civil Twilight 6:37 AM MST 7:00 PM MST
Nautical Twilight 5:59 AM MST 7:39 PM MST
Astronomical Twilight 5:20 AM MST 8:18 PM MST
Moon 3:51 AM MST (3/6) 12:46 PM MST (3/6)
Length of Visible Light 12h 23m
Length of Day
11h 17m
Waning Crescent, 29% of the Moon is Illuminated
Mar 6
Waning Crescent
Mar 11
New
Mar 19
First Quarter
Mar 27
Full
Apr 2
Last Quarter

Hourly Weather History & Observations

Time (MST) Temp. Windchill Dew Point Humidity Pressure Visibility Wind Dir Wind Speed Gust Speed Precip Events Conditions
5:00 AM 11 °F - 8 °F 84% 30.08 in 1 mi Calm Calm - -   Mist
5:00 AM 10.4 °F - 8.6 °F 92% 30.08 in 0.8 mi Calm Calm - N/A   Mist
6:00 AM 10.4 °F 4.0 °F 8.6 °F 92% 30.09 in 0.5 mi South 3.5 mph - N/A Fog Light Freezing Fog
7:00 AM 10.4 °F 4.0 °F 6.8 °F 85% 30.08 in 0.2 mi SW 3.5 mph - N/A Fog Light Freezing Fog
8:00 AM 10.4 °F 2.2 °F 6.8 °F 85% 30.07 in 0.2 mi West 4.6 mph - N/A Fog Light Freezing Fog
9:00 AM 12.2 °F - 10.4 °F 92% 30.05 in 0.2 mi NNW 2.3 mph - N/A Fog Light Freezing Fog
10:00 AM 14.0 °F 6.5 °F 12.2 °F 93% 30.04 in 0.1 mi South 4.6 mph - N/A Fog Light Freezing Fog
11:00 AM 15 °F - 13 °F 85% 30.03 in 0 mi South 3.5 mph - - Fog Heavy Fog
11:00 AM 15.8 °F 8.6 °F 12.2 °F 86% 30.02 in 0.2 mi South 4.6 mph - N/A Fog Light Freezing Fog
11:46 AM 15.8 °F - 12.2 °F 86% 30.01 in 0.5 mi South 2.3 mph - N/A Fog Light Freezing Fog
12:00 PM 15.8 °F - 12.2 °F 86% 30.01 in 0.5 mi Calm Calm - N/A Fog Light Freezing Fog
12:19 PM 15.8 °F - 14.0 °F 93% 30.01 in 1.0 mi Calm Calm - N/A   Overcast
12:44 PM 15.8 °F 10.2 °F 14.0 °F 93% 30.00 in 2.0 mi West 3.5 mph - N/A   Overcast
1:00 PM 15.8 °F - 14.0 °F 93% 29.99 in 3.0 mi Calm Calm - N/A   Overcast
1:16 PM 17.6 °F - 15.8 °F 93% 29.99 in 4.0 mi Calm Calm - N/A   Overcast
2:00 PM 17.6 °F - 15.8 °F 93% 29.99 in 4.0 mi East 2.3 mph - N/A   Overcast
2:25 PM 17.6 °F - 15.8 °F 93% 29.98 in 4.0 mi Variable 2.3 mph - N/A Snow Light Snow
2:38 PM 19.4 °F 14.3 °F 17.6 °F 93% 29.98 in 2.5 mi SE 3.5 mph - N/A Snow Light Snow
3:00 PM 19.4 °F 12.8 °F 17.6 °F 93% 29.98 in 2.5 mi East 4.6 mph - N/A Snow Light Snow
3:28 PM 21.2 °F 13.6 °F 19.4 °F 93% 29.99 in 1.2 mi NE 5.8 mph - N/A Snow Light Snow
4:00 PM 19.4 °F 10.4 °F 19.4 °F 100% 29.99 in 1.0 mi ENE 6.9 mph - N/A Snow Light Snow
5:00 PM 20 °F - 18 °F 89% 29.99 in 1 mi NE 5.8 mph - - Snow Light Snow
5:00 PM 19.4 °F 11.5 °F 17.6 °F 93% 29.98 in 1.5 mi NE 5.8 mph - N/A Snow Light Snow
6:00 PM 19.4 °F 11.5 °F 17.6 °F 93% 29.99 in 1.2 mi ENE 5.8 mph - N/A Snow Light Snow
7:00 PM 17.6 °F 9.3 °F 15.8 °F 93% 30.01 in 1.0 mi ENE 5.8 mph - N/A Snow Light Snow
8:00 PM 17.6 °F 10.7 °F 15.8 °F 93% 30.03 in 1.2 mi NE 4.6 mph - N/A Snow Light Snow
9:00 PM 15.8 °F 8.6 °F 14.0 °F 93% 30.03 in 1.2 mi NNE 4.6 mph - N/A Snow Light Snow
10:00 PM 15.8 °F 10.2 °F 14.0 °F 93% 29.81 in 1.2 mi NE 3.5 mph - N/A Snow Light Snow